Location: �clusier
(49.9361°N, 2.7869°E)
Time: 00:03:06
(UTC+00:00)

Cosmos 1331 Rocket - Pass Details

Date: 25 October 2021
Orbit: 749 x 778 km, 74.0° (Epoch: 30 November)

Event Time Altitude Azimuth Distance (km) Brightness Sun altitude
Rises 05:40:14 0° 340° (NNW) 3,232 6.9 -8.1°
Reaches altitude 10° 05:42:48 10° 349° (N) 2,307 6.3 -7.7°
Maximum altitude 05:47:37 36° 56° (NE) 1,203 5.5 -7.0°
Drops below altitude 10° 05:52:27 10° 123° (ESE) 2,312 7.8 -6.2°
Sets 05:55:00 0° 131° (SE) 3,239 8.4 -5.8°
